[[{"header":{"parameterUnit":"m.s-1","parameterCategory":1,"la1":30.2991,"la2":30.254,"lo1":-89.0895,"lo2":-89.0444,"dy":0.0017,"dx":0.0017,"nx":28,"ny":28,"refTime":"2024-05-08T21:00:00:Z","depth":0,"parameterNumber":2,"parameterNumberName":"U-component_of_WINDS"},"data":[0,0,0,0,0,0,0,0,0,0,0,0,0,0,0,0,0,0,0,0,0,0,0,0,0,0,0,0,0,0,0,0,0,0,0,0,0,0,0,0,0,0,0,0,0,0,0,0,0,0,0,0,0,0,0,0,0,0,-2.9265,-2.9266,0,-2.9394,-2.9396,-2.9397,-2.9435,-2.9434,-2.9433,-2.9433,-2.9568,-2.9572,-2.9577,0,0,0,0,0,0,0,0,0,0,0,0,0,-2.9052,-2.9056,-2.9265,-2.9266,-2.9268,-2.9394,-2.9396,-2.9398,-2.9435,-2.9434,-2.9433,-2.9432,-2.9567,-2.9572,-2.9577,0,0,0,0,0,0,0,0,0,0,0,0,0,-2.916,-2.9057,-2.9264,-2.9302,-2.9306,-2.9394,-2.9396,-2.9398,-2.9435,-2.9434,-2.9433,-2.9432,-2.9565,-2.9571,-2.9578,-2.9638,0,0,-2.9597,-2.96,0,0,0,0,0,0,0,0,-2.9153,-2.9167,-2.9294,-2.9299,-2.9304,-2.9397,-2.9371,-2.9479,-2.9435,-2.9386,-2.9433,-2.9432,-2.9512,-2.9523,-2.955,-2.9645,-2.965,-2.9598,-2.9602,-2.9604,-2.9606,0,0,0,0,0,0,0,-2.9146,-2.9162,-2.9316,-2.9296,-2.9302,-2.9313,-2.9327,-2.9391,-2.9454,-2.939,-2.9393,-2.9408,-2.9515,-2.9544,-2.9553,-2.9652,-2.9598,-2.9603,-2.9607,-2.961,-2.9804,-2.9806,0,0,0,0,0,0,-2.9132,-2.9156,-2.9312,-2.932,-2.9225,-2.9318,-2.9333,-2.9369,-2.9453,-2.9465,-2.9409,-2.9409,-2.9533,-2.9546,-2.9558,-2.9635,-2.9604,-2.961,-2.9614,-2.9803,-2.9805,-2.9806,0,0,0,0,0,0,-2.9127,-2.9145,-2.9307,-2.9239,-2.926,-2.9322,-2.9362,-2.9372,-2.94,-2.9467,-2.9479,-2.9426,-2.9533,-2.9549,-2.9618,-2.964,-2.9613,-2.9619,-2.9802,-2.9804,-2.9806,-2.9788,0,0,0,0,0,0,-2.9121,-2.9143,-2.9166,-2.9239,-2.9263,-2.9363,-2.9363,-2.9375,-2.9411,-2.9413,-2.9487,-2.9498,-2.9533,-2.9608,-2.9624,-2.9648,-2.9624,-2.98,-2.9803,-2.9805,-2.9787,-2.9789,-2.9791,0,0,0,0,0,-2.9113,-2.9157,-2.9167,-2.9186,-2.9293,-2.9364,-2.9379,-2.9418,-2.9412,-2.9436,-2.948,-2.9495,-2.9635,-2.9615,-2.9634,-2.9659,-2.9799,-2.9802,-2.9805,-2.9786,-2.9789,-2.9791,0,0,0,0,0,0,-2.9086,-2.9167,-2.9179,-2.9247,-2.9299,-2.937,-2.9402,-2.9419,-2.9474,-2.9473,-2.9521,-2.9537,-2.9602,-2.9638,-2.9614,-2.9723,-2.9718,-2.9724,-2.9697,-2.97,-2.9702,-2.9691,-2.9629,0,0,0,0,0,-2.9087,-2.9137,-2.9206,-2.926,-2.9285,-2.9339,-2.9371,-2.9397,-2.9452,-2.9474,-2.9523,-2.9577,-2.9633,-2.9669,-2.9724,-2.9793,-2.981,-2.982,-2.9822,-2.9823,-2.9828,-2.9868,-2.9873,-2.9816,-2.9816,-2.9816,0,0,-2.9092,-2.9142,-2.9171,-2.9255,-2.9298,-2.935,-2.9357,-2.9411,-2.945,-2.9483,-2.955,-2.9588,-2.9652,-2.9721,-2.9753,-2.9752,-2.9848,-2.9827,-2.9828,-2.9832,-2.9871,-2.9877,-2.9881,-2.9818,-2.9818,-2.9817,0,0,-2.9125,-2.9169,-2.9218,-2.9261,-2.9325,-2.9361,-2.9373,-2.9442,-2.9468,-2.9537,-2.9562,-2.9611,-2.9706,-2.975,-2.9785,-2.9837,-2.9854,-2.9854,-2.9865,-2.9902,-2.9907,-2.9911,-2.9929,-2.9935,-2.9859,-2.9859,-2.9859,0,-2.9123,-2.92,-2.9241,-2.9294,-2.9331,-2.9363,-2.9413,-2.9453,-2.9533,-2.9558,-2.9556,-2.9677,-2.9722,-2.9801,-2.9814,-2.9842,-2.9857,-2.9845,-2.9903,-2.9907,-2.9912,-2.993,-2.9937,-2.9859,-2.9859,-2.9859,-2.9859,0,-2.9194,-2.9248,-2.928,-2.9355,-2.9395,-2.9447,-2.9497,-2.9533,-2.9556,-2.9592,-2.9662,-2.9718,-2.9785,-2.9806,-2.9829,-2.989,-2.9887,-2.9893,-2.9888,-2.9916,-2.9934,-2.9941,-2.9858,-2.9858,-2.9858,-2.9859,0,0,-2.9213,-2.931,-2.9321,-2.9355,-2.9429,-2.9472,-2.9526,-2.9591,-2.9621,-2.9676,-2.9722,-2.9803,-2.981,-2.9849,-2.9878,-2.9911,-2.9949,-2.9914,-2.9916,-2.9918,-3.0019,-3.0012,-3.002,-2.9961,-2.9962,-2.9963,-3.0013,0,-2.9255,-2.9351,-2.9389,-2.9467,-2.9518,-2.955,-2.9597,-2.9648,-2.9684,-2.9733,-2.9773,-2.9829,-2.9834,-2.9858,-2.9892,-2.9936,-2.9969,-2.9934,-3.0005,-3.0007,-2.9986,-3.0029,-3.0023,-3.0067,-3.002,-3.0021,-3.0022,0,-2.9317,-2.9371,-2.9453,-2.9521,-2.9544,-2.9585,-2.9648,-2.9695,-2.9754,-2.9778,-2.9822,-2.9849,-2.9908,-2.9901,-2.9983,-2.9957,-2.9989,-3.0016,-3.0018,-3.0026,-3.0015,-3.0036,-3.0082,-3.0088,-3.0034,-3.0033,-3.0032,0,-2.9322,-2.9415,-2.9477,-2.9505,-2.9586,-2.9615,-2.965,-2.9708,-2.9745,-2.9801,-2.9825,-2.9887,-2.9921,-2.9969,-3.0013,-3.0003,-3.0091,-3.0087,-3.0112,-3.0111,-3.0128,-3.0126,-3.0178,-3.015,-3.015,-3.015,-3.015,0,-2.9365,-2.9414,-2.948,-2.9517,-2.9574,-2.9619,-2.9674,-2.9711,-2.9763,-2.9809,-2.9842,-2.9885,-2.994,-2.9991,-3.0025,-3.0088,-3.0103,-3.0125,-3.0133,-3.0121,-3.0118,-3.0142,-3.014,-3.0152,-3.0152,-3.0151,-3.0151,0,-2.9379,-2.9425,-2.9494,-2.9565,-2.9584,-2.9622,-2.9684,-2.9722,-2.976,-2.9818,-2.9835,-2.9895,-2.9956,-3.0004,-3.0085,-3.0108,-3.0174,-3.0184,-3.0153,-3.0157,-3.018,-3.0177,-3.0248,-3.026,-3.0225,-3.0225,-3.0225,0,-2.9403,-2.9441,-2.9516,-2.9549,-2.9583,-2.9636,-2.9674,-2.972,-2.9758,-2.9829,-2.9859,-2.9922,-2.9975,-3.0072,-3.0123,-3.0185,-3.0196,-3.0217,-3.0206,-3.0192,-3.0196,-3.0192,-3.0197,-3.0218,-3.0218,-3.0218,-3.0218,0,-2.944,-2.9461,-2.9513,-2.9573,-2.9617,-2.9667,-2.9718,-2.9743,-2.9799,-2.984,-2.9902,-2.9944,-3.0025,-3.0088,-3.0155,-3.0193,-3.0215,-3.0221,-3.023,-3.0218,-3.0199,-3.0209,-3.0156,-3.0219,-3.0219,-3.0219,-3.0219,-3.0219,-2.946,-2.9495,-2.9553,-2.961,-2.9653,-2.97,-2.974,-2.9782,-2.9835,-2.9904,-2.9929,-2.9993,-3.0052,-3.0145,-3.0183,-3.0235,-3.0237,-3.025,-3.0253,-3.0256,-3.0254,-3.0191,-3.0248,-3.0248,-3.0248,-3.0248,-3.0248,0,-2.9499,-2.9537,-2.9589,-2.9659,-2.9704,-2.972,-2.9777,-2.9814,-2.987,-2.9923,-2.9974,-3.0046,-3.0108,-3.0164,-3.0228,-3.0259,-3.027,-3.0274,-3.0272,-3.028,-3.0249,-3.0234,-3.0263,-3.0263,-3.0263,-3.0263,-3.0263,-3.0263,-2.9524,-2.9584,-2.9612,-2.9695,-2.9734,-2.9796,-2.9828,-2.9871,-2.9914,-2.9992,-3.0043,-3.0079,-3.0134,-3.0202,-3.0259,-3.0275,-3.0297,-3.0297,-3.0315,-3.0285,-3.0282,-3.028,-3.0267,-3.0302,-3.0302,-3.0342,-3.0342,-3.0342]},{"header":{"parameterUnit":"m.s-1","parameterCategory":1,"la1":30.2991,"la2":30.254,"lo1":-89.0895,"lo2":-89.0444,"dy":0.0017,"dx":0.0017,"nx":28,"ny":28,"refTime":"2024-05-08T21:00:00:Z","depth":0,"parameterNumber":3,"parameterNumberName":"V-component_of_WINDS"},"data":[0,0,0,0,0,0,0,0,0,0,0,0,0,0,0,0,0,0,0,0,0,0,0,0,0,0,0,0,0,0,0,0,0,0,0,0,0,0,0,0,0,0,0,0,0,0,0,0,0,0,0,0,0,0,0,0,0,0,5.8928,5.8929,0,5.9078,5.908,5.9081,5.9087,5.9085,5.9083,5.9082,5.9235,5.924,5.9246,0,0,0,0,0,0,0,0,0,0,0,0,0,5.8646,5.8651,5.8927,5.8929,5.8931,5.9078,5.908,5.9082,5.9087,5.9085,5.9083,5.9081,5.9233,5.924,5.9247,0,0,0,0,0,0,0,0,0,0,0,0,0,5.8779,5.8653,5.8927,5.8952,5.8955,5.9077,5.908,5.9082,5.9088,5.9085,5.9082,5.908,5.9231,5.9239,5.9248,5.9355,0,0,5.9274,5.9278,0,0,0,0,0,0,0,0,5.8772,5.879,5.8946,5.895,5.8955,5.9061,5.9037,5.9174,5.9088,5.9037,5.9082,5.9078,5.9179,5.9192,5.9226,5.9362,5.9369,5.9275,5.928,5.9284,5.9286,0,0,0,0,0,0,0,5.8762,5.8783,5.8987,5.8948,5.8954,5.8955,5.8971,5.9063,5.9122,5.9042,5.9042,5.906,5.9181,5.9218,5.923,5.9371,5.9274,5.9282,5.9287,5.9291,5.9605,5.9608,0,0,0,0,0,0,5.8748,5.8775,5.8982,5.8991,5.8855,5.8963,5.898,5.9029,5.9121,5.9132,5.9062,5.906,5.9204,5.9219,5.9235,5.9368,5.9284,5.9292,5.9297,5.9601,5.9605,5.9609,0,0,0,0,0,0,5.8742,5.8767,5.8976,5.8884,5.8911,5.897,5.9025,5.9034,5.9071,5.9136,5.9147,5.9089,5.9203,5.9223,5.9326,5.9373,5.9296,5.9303,5.9598,5.9603,5.9607,5.9634,0,0,0,0,0,0,5.8734,5.8765,5.8806,5.8885,5.8915,5.9064,5.9028,5.9039,5.9086,5.9084,5.9164,5.9175,5.9202,5.9313,5.9334,5.9384,5.931,5.9594,5.96,5.9605,5.9629,5.9639,5.9647,0,0,0,0,0,5.8724,5.8807,5.8808,5.8833,5.8968,5.9067,5.9084,5.9114,5.9089,5.9131,5.9174,5.9172,5.9364,5.9323,5.9347,5.94,5.9591,5.9598,5.9605,5.9625,5.9637,5.9647,0,0,0,0,0,0,5.8731,5.8817,5.882,5.893,5.8991,5.9067,5.9121,5.9126,5.9195,5.9191,5.9225,5.9243,5.9345,5.9383,5.9335,5.951,5.9475,5.9487,5.9481,5.9493,5.9502,5.9491,5.9317,0,0,0,0,0,5.8746,5.8818,5.889,5.8981,5.9011,5.9061,5.9105,5.9123,5.9188,5.9213,5.9263,5.9326,5.9401,5.9449,5.9521,5.9634,5.9652,5.9683,5.9692,5.9699,5.9709,5.9773,5.9788,5.9632,5.9632,5.9632,0,0,5.8776,5.8832,5.8876,5.8983,5.9033,5.9108,5.9083,5.9163,5.9219,5.9225,5.9326,5.9365,5.9437,5.9546,5.9596,5.958,5.9757,5.9708,5.9713,5.972,5.9782,5.9797,5.981,5.9637,5.9636,5.9635,0,0,5.887,5.892,5.9001,5.9052,5.9127,5.916,5.918,5.9256,5.9283,5.9384,5.9391,5.9458,5.9586,5.9637,5.968,5.9796,5.9797,5.9819,5.9867,5.9929,5.9941,5.9952,5.9995,6.0009,5.9829,5.9829,5.9829,0,5.8899,5.9012,5.9043,5.9124,5.9171,5.9181,5.9265,5.9312,5.9407,5.944,5.9421,5.9582,5.9631,5.9753,5.9782,5.9816,5.984,5.981,5.9937,5.9948,5.9959,6.0,6.0016,5.9831,5.9831,5.983,5.983,0,5.9044,5.9122,5.9179,5.9272,5.9326,5.9407,5.9451,5.9502,5.9515,5.955,5.9654,5.9714,5.9799,5.9829,5.9843,5.9954,5.9942,5.993,5.9895,5.9976,6.0015,6.003,5.9834,5.9833,5.9832,5.9832,0,0,5.9146,5.9255,5.9276,5.9319,5.9403,5.9465,5.9547,5.9631,5.9675,5.974,5.9811,5.9919,5.9909,5.9958,5.9978,6.0032,6.0122,6.0013,6.0016,6.0032,6.0249,6.0258,6.0275,6.0123,6.0126,6.0129,6.0243,0,5.925,5.9397,5.9428,5.9556,5.9629,5.9641,5.9713,5.9773,5.9808,5.9876,5.9915,5.9992,5.9972,6.0001,6.0056,6.0099,6.0166,6.0091,6.019,6.0193,6.0172,6.0296,6.0306,6.0411,6.0258,6.0261,6.0263,0,5.9391,5.9461,5.9596,5.9672,5.9705,5.9769,5.9849,5.9913,5.9982,6.0004,6.0059,6.0074,6.0161,6.0122,6.0243,6.0192,6.0234,6.0262,6.0266,6.0277,6.0233,6.0311,6.0445,6.0461,6.0287,6.0285,6.0283,0,5.9454,5.9581,5.9679,5.9715,5.9806,5.9851,5.9891,5.9957,6.0006,6.0077,6.0109,6.0188,6.0231,6.0293,6.0328,6.0297,6.0447,6.0411,6.0468,6.0468,6.05,6.0497,6.0643,6.0526,6.0525,6.0525,6.0525,0,5.9567,5.965,5.9709,5.9769,5.9862,5.9897,5.9988,6.0028,6.0087,6.0155,6.0169,6.0233,6.0276,6.0346,6.0375,6.0471,6.0491,6.0511,6.0518,6.0511,6.0508,6.0539,6.0533,6.0529,6.0528,6.0528,6.0527,0,5.9653,5.9696,5.9803,5.9881,5.9902,5.9968,6.0035,6.0094,6.0129,6.0216,6.0238,6.0295,6.0378,6.042,6.0524,6.0543,6.0653,6.0654,6.063,6.0632,6.0688,6.0682,6.0859,6.0885,6.0749,6.0751,6.0752,0,5.9723,5.9787,5.9872,5.9919,5.996,6.0036,6.0086,6.0123,6.0175,6.0259,6.0308,6.0393,6.0462,6.0596,6.0646,6.0726,6.073,6.0787,6.0742,6.0733,6.0733,6.0729,6.0736,6.0795,6.0796,6.0797,6.0798,0,5.9844,5.9862,5.9934,6.0014,6.0074,6.0139,6.0202,6.024,6.0287,6.0345,6.0431,6.0485,6.0592,6.0676,6.076,6.0801,6.0808,6.0812,6.0829,6.0823,6.0806,6.0817,6.0652,6.0807,6.0807,6.0806,6.0805,6.0805,5.9925,5.9982,6.0052,6.0132,6.0184,6.0243,6.0303,6.0347,6.0419,6.0509,6.0527,6.0618,6.0687,6.08,6.0844,6.0917,6.0905,6.093,6.0937,6.0943,6.0946,6.0794,6.0932,6.0932,6.0932,6.0932,6.0931,0,6.0047,6.0092,6.0165,6.0255,6.0318,6.0319,6.039,6.0443,6.0523,6.0587,6.0655,6.0755,6.0837,6.0894,6.0977,6.1025,6.103,6.1045,6.1043,6.1053,6.0952,6.0928,6.104,6.104,6.104,6.104,6.104,6.104,6.0118,6.0216,6.0243,6.0367,6.0412,6.0502,6.0543,6.0598,6.0649,6.076,6.0828,6.0865,6.0926,6.1014,6.109,6.1105,6.1135,6.1151,6.1166,6.1071,6.1059,6.1049,6.1027,6.1157,6.1157,6.1261,6.1262,6.1263]}]]